Starlink 30892

operational
NORAD ID: 58366 Int'l Des: 2023-177 Owner: SPXS Country: US Constellation: starlink
LEOCIRCULAR

Starlink 30892について

説明を読み込み中...

リアルタイム位置

3D地球を読み込み中...

次回通過

高度履歴

Altitude vs Time

uPlot chart will show altitude changes over time

軌道要素

1 58366U 23177R 25350.25516989 .00001214 00000-0 10488-3 0 9990
2 58366 43.0038 85.0693 0001242 269.3516 90.7185 15.02538732115676
Epoch: Dec 16, 2025 • Age: 16 hours

現在のステータス

高度 558.3 km
速度 7.59 km/s
衛星直下点 12.70°N, 37.12°E
打ち上げ日 Nov 18, 2023
運用期間 2 years
タイプ internet

技術仕様

分類 Payload
質量 730.00 kg
乾燥質量 700.00 kg
総質量 730.00 kg
長さ 0.30 m
直径 4.10 m
スパン 29.00 m
形状 Box + pan
製造者 SPXS
バスタイプ Starlink V2M
フェーズステータス In Orbit
所有者/国 SPXS/US

大規模コンステレーション

Loading constellations...